Time,TemperatureF,DewpointF,PressureIn,WindDirection,WindDirectionDegrees,WindSpeedMPH,WindSpeedGustMPH,Humidity,HourlyPrecipIn,Conditions,Clouds,dailyrainin,SoftwareType,DateUTC
2013-04-26 00:06:00,49.4,47.0,30.14,SSW,200,0.0,0.0,90,0.00,,,0.00,weatherlink.com 1.10,2013-04-26 07:06:00,
2013-04-26 00:22:00,49.5,46.0,30.14,SSE,156,0.0,0.0,89,0.00,,,0.00,weatherlink.com 1.10,2013-04-26 07:22:00,
2013-04-26 00:37:00,49.6,47.0,30.13,SSE,156,0.0,0.0,89,0.00,,,0.00,weatherlink.com 1.10,2013-04-26 07:37:00,
2013-04-26 00:52:00,49.7,47.0,30.13,SSE,156,0.0,0.0,89,0.00,,,0.00,weatherlink.com 1.10,2013-04-26 07:52:00,
2013-04-26 01:07:00,49.7,47.0,30.13,SSE,156,0.0,0.0,89,0.00,,,0.00,weatherlink.com 1.10,2013-04-26 08:07:00,
2013-04-26 01:22:00,49.8,47.0,30.14,SSE,156,0.0,0.0,89,0.00,,,0.00,weatherlink.com 1.10,2013-04-26 08:22:00,
2013-04-26 01:37:00,50.0,47.0,30.14,SSE,156,0.0,0.0,89,0.00,,,0.00,weatherlink.com 1.10,2013-04-26 08:37:00,
2013-04-26 01:52:00,50.2,47.0,30.13,SSE,156,0.0,0.0,89,0.00,,,0.00,weatherlink.com 1.10,2013-04-26 08:52:00,
2013-04-26 02:07:00,50.3,47.0,30.14,SSE,156,0.0,0.0,88,0.00,,,0.00,weatherlink.com 1.10,2013-04-26 09:07:00,
2013-04-26 02:22:00,50.3,47.0,30.14,SSE,156,0.0,0.0,88,0.00,,,0.00,weatherlink.com 1.10,2013-04-26 09:22:00,
2013-04-26 02:37:00,50.4,47.0,30.13,SSE,156,0.0,0.0,88,0.00,,,0.00,weatherlink.com 1.10,2013-04-26 09:37:00,
2013-04-26 02:52:00,50.2,47.0,30.14,SSE,156,0.0,0.0,88,0.00,,,0.00,weatherlink.com 1.10,2013-04-26 09:52:00,
2013-04-26 03:07:00,49.6,47.0,30.14,SSE,156,0.0,0.0,89,0.00,,,0.00,weatherlink.com 1.10,2013-04-26 10:07:00,
2013-04-26 03:22:00,49.1,46.0,30.14,SSE,156,0.0,0.0,90,0.00,,,0.00,weatherlink.com 1.10,2013-04-26 10:22:00,
2013-04-26 03:37:00,48.5,46.0,30.14,SSE,156,0.0,0.0,90,0.00,,,0.00,weatherlink.com 1.10,2013-04-26 10:37:00,
2013-04-26 03:52:00,47.6,45.0,30.15,SSE,156,0.0,0.0,91,0.00,,,0.00,weatherlink.com 1.10,2013-04-26 10:52:00,
2013-04-26 04:07:00,46.9,45.0,30.15,SSE,156,0.0,0.0,92,0.00,,,0.00,weatherlink.com 1.10,2013-04-26 11:07:00,
2013-04-26 04:22:00,46.4,45.0,30.15,SSE,156,0.0,0.0,93,0.00,,,0.00,weatherlink.com 1.10,2013-04-26 11:22:00,
2013-04-26 04:37:00,46.0,44.0,30.15,SSE,156,0.0,0.0,93,0.00,,,0.00,weatherlink.com 1.10,2013-04-26 11:37:00,
2013-04-26 04:52:00,45.6,44.0,30.15,SSE,156,0.0,0.0,94,0.00,,,0.00,weatherlink.com 1.10,2013-04-26 11:52:00,
2013-04-26 05:07:00,45.1,44.0,30.14,SSE,156,0.0,0.0,94,0.00,,,0.00,weatherlink.com 1.10,2013-04-26 12:07:00,
2013-04-26 05:22:00,44.8,43.0,30.15,SSE,156,0.0,0.0,94,0.00,,,0.00,weatherlink.com 1.10,2013-04-26 12:22:00,
2013-04-26 05:37:00,45.3,44.0,30.15,SSE,156,0.0,0.0,95,0.00,,,0.00,weatherlink.com 1.10,2013-04-26 12:37:00,
2013-04-26 05:52:00,45.9,45.0,30.15,SSE,156,0.0,0.0,95,0.00,,,0.00,weatherlink.com 1.10,2013-04-26 12:52:00,
2013-04-26 06:07:00,46.4,45.0,30.16,SSE,156,0.0,0.0,94,0.00,,,0.00,weatherlink.com 1.10,2013-04-26 13:07:00,
2013-04-26 06:22:00,47.0,46.0,30.16,SSE,156,0.0,0.0,95,0.00,,,0.00,weatherlink.com 1.10,2013-04-26 13:22:00,
2013-04-26 06:38:00,47.7,46.0,30.17,SSE,156,0.0,0.0,94,0.00,,,0.00,weatherlink.com 1.10,2013-04-26 13:38:00,
2013-04-26 06:53:00,48.4,47.0,30.18,SSE,156,0.0,0.0,93,0.00,,,0.00,weatherlink.com 1.10,2013-04-26 13:53:00,
2013-04-26 07:08:00,48.9,47.0,30.18,SSE,156,0.0,0.0,92,0.00,,,0.00,weatherlink.com 1.10,2013-04-26 14:08:00,
2013-04-26 07:23:00,49.4,47.0,30.19,SSE,156,0.0,0.0,90,0.00,,,0.00,weatherlink.com 1.10,2013-04-26 14:23:00,
2013-04-26 07:38:00,49.9,47.0,30.19,SSE,156,0.0,0.0,89,0.00,,,0.00,weatherlink.com 1.10,2013-04-26 14:38:00,
2013-04-26 07:53:00,50.0,47.0,30.20,SSE,151,0.0,1.0,88,0.00,,,0.00,weatherlink.com 1.10,2013-04-26 14:53:00,
2013-04-26 08:08:00,50.4,47.0,30.21,SSE,153,0.0,1.0,87,0.00,,,0.00,weatherlink.com 1.10,2013-04-26 15:08:00,
2013-04-26 08:23:00,50.4,47.0,30.22,SSE,155,0.0,1.0,87,0.00,,,0.00,weatherlink.com 1.10,2013-04-26 15:23:00,
2013-04-26 08:38:00,50.7,47.0,30.22,ESE,113,0.0,2.0,86,0.00,,,0.00,weatherlink.com 1.10,2013-04-26 15:38:00,
2013-04-26 08:53:00,51.1,47.0,30.21,SE,129,0.0,1.0,86,0.00,,,0.00,weatherlink.com 1.10,2013-04-26 15:53:00,
2013-04-26 09:08:00,52.0,48.0,30.22,SE,129,0.0,1.0,85,0.00,,,0.00,weatherlink.com 1.10,2013-04-26 16:08:00,
2013-04-26 09:23:00,52.7,48.0,30.22,SE,136,0.0,1.0,83,0.00,,,0.00,weatherlink.com 1.10,2013-04-26 16:23:00,
2013-04-26 09:38:00,54.3,48.0,30.22,SE,137,0.0,2.0,80,0.00,,,0.00,weatherlink.com 1.10,2013-04-26 16:38:00,
2013-04-26 09:53:00,55.6,49.0,30.22,NNW,337,0.0,2.0,77,0.00,,,0.00,weatherlink.com 1.10,2013-04-26 16:53:00,
2013-04-26 10:08:00,57.8,49.0,30.22,SSW,212,0.0,2.0,72,0.00,,,0.00,weatherlink.com 1.10,2013-04-26 17:08:00,
2013-04-26 10:23:00,60.0,50.0,30.22,South,173,0.0,2.0,69,0.00,,,0.00,weatherlink.com 1.10,2013-04-26 17:23:00,
2013-04-26 10:38:00,60.9,50.0,30.22,ESE,122,0.0,2.0,67,0.00,,,0.00,weatherlink.com 1.10,2013-04-26 17:38:00,
2013-04-26 10:53:00,62.8,50.0,30.23,NNW,333,0.0,2.0,64,0.00,,,0.00,weatherlink.com 1.10,2013-04-26 17:53:00,
2013-04-26 11:08:00,62.9,50.0,30.23,North,6,1.0,3.0,62,0.00,,,0.00,weatherlink.com 1.10,2013-04-26 18:08:00,
2013-04-26 11:23:00,63.4,50.0,30.22,North,355,0.0,3.0,61,0.00,,,0.00,weatherlink.com 1.10,2013-04-26 18:23:00,
2013-04-26 11:38:00,65.0,50.0,30.22,NNW,338,0.0,3.0,59,0.00,,,0.00,weatherlink.com 1.10,2013-04-26 18:38:00,
2013-04-26 11:54:00,67.2,51.0,30.22,NNW,335,1.0,2.0,57,0.00,,,0.00,weatherlink.com 1.10,2013-04-26 18:54:00,
2013-04-26 12:09:00,66.9,50.0,30.22,SSE,156,1.0,3.0,55,0.00,,,0.00,weatherlink.com 1.10,2013-04-26 19:09:00,
2013-04-26 12:24:00,66.3,50.0,30.21,NW,309,0.0,4.0,57,0.00,,,0.00,weatherlink.com 1.10,2013-04-26 19:24:00,
2013-04-26 12:39:00,66.2,51.0,30.21,North,350,1.0,4.0,59,0.00,,,0.00,weatherlink.com 1.10,2013-04-26 19:39:00,
2013-04-26 12:54:00,67.3,52.0,30.21,NW,320,1.0,4.0,58,0.00,,,0.00,weatherlink.com 1.10,2013-04-26 19:54:00,
2013-04-26 13:09:00,68.1,52.0,30.21,WSW,257,0.0,3.0,57,0.00,,,0.00,weatherlink.com 1.10,2013-04-26 20:09:00,
2013-04-26 13:24:00,68.0,52.0,30.20,NW,314,1.0,4.0,56,0.00,,,0.00,weatherlink.com 1.10,2013-04-26 20:24:00,
2013-04-26 13:39:00,68.4,52.0,30.20,NNW,333,2.0,4.0,56,0.00,,,0.00,weatherlink.com 1.10,2013-04-26 20:39:00,
2013-04-26 13:54:00,69.8,53.0,30.20,SW,233,1.0,5.0,56,0.00,,,0.00,weatherlink.com 1.10,2013-04-26 20:54:00,
2013-04-26 14:09:00,69.7,53.0,30.20,NE,54,0.0,2.0,55,0.00,,,0.00,weatherlink.com 1.10,2013-04-26 21:09:00,
2013-04-26 14:24:00,71.5,53.0,30.19,NW,313,0.0,5.0,52,0.00,,,0.00,weatherlink.com 1.10,2013-04-26 21:24:00,
2013-04-26 14:39:00,70.0,52.0,30.19,North,359,2.0,6.0,54,0.00,,,0.00,weatherlink.com 1.10,2013-04-26 21:39:00,
2013-04-26 14:54:00,70.1,52.0,30.19,NNW,333,2.0,4.0,53,0.00,,,0.00,weatherlink.com 1.10,2013-04-26 21:54:00,
2013-04-26 15:09:00,69.7,52.0,30.18,NW,320,1.0,5.0,54,0.00,,,0.00,weatherlink.com 1.10,2013-04-26 22:09:00,
2013-04-26 15:24:00,69.7,52.0,30.18,NW,320,0.0,3.0,54,0.00,,,0.00,weatherlink.com 1.10,2013-04-26 22:24:00,
2013-04-26 15:39:00,69.4,52.0,30.18,WNW,295,1.0,4.0,55,0.00,,,0.00,weatherlink.com 1.10,2013-04-26 22:39:00,
2013-04-26 15:54:00,70.1,53.0,30.17,WNW,284,0.0,4.0,54,0.00,,,0.00,weatherlink.com 1.10,2013-04-26 22:54:00,
2013-04-26 16:09:00,69.9,52.0,30.18,NW,304,0.0,2.0,54,0.00,,,0.00,weatherlink.com 1.10,2013-04-26 23:09:00,
2013-04-26 16:24:00,69.6,52.0,30.17,NW,321,0.0,4.0,54,0.00,,,0.00,weatherlink.com 1.10,2013-04-26 23:24:00,
2013-04-26 16:39:00,69.4,52.0,30.17,WSW,252,1.0,3.0,55,0.00,,,0.00,weatherlink.com 1.10,2013-04-26 23:39:00,
2013-04-26 16:54:00,67.6,52.0,30.17,NW,323,0.0,4.0,57,0.00,,,0.00,weatherlink.com 1.10,2013-04-26 23:54:00,
2013-04-26 17:09:00,66.2,52.0,30.17,NNW,345,0.0,2.0,60,0.00,,,0.00,weatherlink.com 1.10,2013-04-27 00:09:00,
2013-04-26 17:24:00,66.2,52.0,30.17,North,351,0.0,1.0,61,0.00,,,0.00,weatherlink.com 1.10,2013-04-27 00:24:00,
2013-04-26 17:39:00,66.1,52.0,30.17,WNW,290,0.0,1.0,61,0.00,,,0.00,weatherlink.com 1.10,2013-04-27 00:39:00,
2013-04-26 17:54:00,65.6,52.0,30.17,NNW,342,0.0,1.0,62,0.00,,,0.00,weatherlink.com 1.10,2013-04-27 00:54:00,
2013-04-26 18:09:00,65.0,52.0,30.17,SSE,149,0.0,1.0,63,0.00,,,0.00,weatherlink.com 1.10,2013-04-27 01:09:00,
2013-04-26 18:24:00,64.3,52.0,30.17,NW,321,0.0,2.0,64,0.00,,,0.00,weatherlink.com 1.10,2013-04-27 01:24:00,
2013-04-26 18:39:00,63.5,51.0,30.18,North,354,0.0,1.0,65,0.00,,,0.00,weatherlink.com 1.10,2013-04-27 01:39:00,
2013-04-26 18:54:00,62.2,51.0,30.17,WSW,240,0.0,1.0,67,0.00,,,0.00,weatherlink.com 1.10,2013-04-27 01:54:00,
2013-04-26 19:09:00,61.1,51.0,30.18,NNE,13,0.0,1.0,69,0.00,,,0.00,weatherlink.com 1.10,2013-04-27 02:09:00,
2013-04-26 19:24:00,60.0,51.0,30.18,WNW,288,0.0,1.0,71,0.00,,,0.00,weatherlink.com 1.10,2013-04-27 02:24:00,
2013-04-26 19:39:00,58.5,50.0,30.18,WNW,289,0.0,1.0,73,0.00,,,0.00,weatherlink.com 1.10,2013-04-27 02:39:00,
2013-04-26 19:54:00,57.2,50.0,30.18,WNW,289,0.0,1.0,76,0.00,,,0.00,weatherlink.com 1.10,2013-04-27 02:54:00,
2013-04-26 20:09:00,56.0,50.0,30.18,WNW,289,0.0,1.0,79,0.00,,,0.00,weatherlink.com 1.10,2013-04-27 03:09:00,
2013-04-26 20:24:00,55.0,49.0,30.19,West,267,0.0,1.0,80,0.00,,,0.00,weatherlink.com 1.10,2013-04-27 03:24:00,
2013-04-26 20:39:00,54.2,49.0,30.19,WNW,290,0.0,1.0,82,0.00,,,0.00,weatherlink.com 1.10,2013-04-27 03:39:00,
2013-04-26 20:54:00,53.1,48.0,30.20,WNW,290,0.0,0.0,83,0.00,,,0.00,weatherlink.com 1.10,2013-04-27 03:54:00,
2013-04-26 21:09:00,52.4,48.0,30.20,West,262,0.0,1.0,85,0.00,,,0.00,weatherlink.com 1.10,2013-04-27 04:09:00,
2013-04-26 21:24:00,51.8,48.0,30.21,West,262,0.0,1.0,85,0.00,,,0.00,weatherlink.com 1.10,2013-04-27 04:24:00,
2013-04-26 21:39:00,51.1,47.0,30.21,West,262,0.0,1.0,86,0.00,,,0.00,weatherlink.com 1.10,2013-04-27 04:39:00,
2013-04-26 21:54:00,50.4,47.0,30.21,West,264,0.0,1.0,87,0.00,,,0.00,weatherlink.com 1.10,2013-04-27 04:54:00,
2013-04-26 22:09:00,49.6,46.0,30.21,West,264,0.0,1.0,88,0.00,,,0.00,weatherlink.com 1.10,2013-04-27 05:09:00,
2013-04-26 22:24:00,49.5,46.0,30.21,SW,232,0.0,1.0,89,0.00,,,0.00,weatherlink.com 1.10,2013-04-27 05:24:00,
2013-04-26 22:39:00,49.7,47.0,30.21,SE,124,0.0,2.0,89,0.00,,,0.00,weatherlink.com 1.10,2013-04-27 05:39:00,
2013-04-26 22:55:00,49.5,47.0,30.21,South,172,1.0,2.0,90,0.00,,,0.00,weatherlink.com 1.10,2013-04-27 05:55:00,
2013-04-26 23:09:00,49.4,47.0,30.21,SE,126,0.0,2.0,91,0.00,,,0.00,weatherlink.com 1.10,2013-04-27 06:09:00,
2013-04-26 23:24:00,49.2,47.0,30.22,SE,141,0.0,1.0,91,0.00,,,0.00,weatherlink.com 1.10,2013-04-27 06:24:00,
2013-04-26 23:39:00,48.4,46.0,30.22,SE,141,0.0,0.0,90,0.00,,,0.00,weatherlink.com 1.10,2013-04-27 06:39:00,
2013-04-26 23:54:00,47.5,45.0,30.22,SE,141,0.0,0.0,91,0.00,,,0.00,weatherlink.com 1.10,2013-04-27 06:54:00,